STARLINK-1821, 46718

Orbit data source: Space-Track

STARLINK-1821, 46718 is a payload satellite owned by SpaceX/Seattle (US) in LEO that was launched on Sun, 18 Oct 2020 UTC via an FALCON 9 launch vehicle from the Air Force Eastern Test Range (AFETR). Payload-class satellites include a variety of spacecraft equipped with specific instruments for various scientific and technological missions. These include communications satellites like Starlink; space stations such as the ISS; scientific satellites like the Hubble; Earth observation satellites from companies like Planet Labs, Umbra, and HawkEye 360; GPS; miniature CubeSats for education and research; and military/defense satellites.

Loading next visibility...
Identifier
46718, 2020-073BA
Orbit
LEO
Last TLE update
10 hours ago
Origin
Manufacturer
SpaceX/Seattle
Mission
Operational Commercial Communications
Bus & Motor
STARLINK, Unknown motor
Mass
260 kg wet, ~248 kg dry
Launch date (UTC)
2020-10-18 (5 years ago)
Launch vehicle
FALCON 9
Launch site
Air Force Eastern Test Range (AFETR)
Object type
Payload
Rocket body
Debris
Shape & HBR
Box + 1 Pan, 8.86 m
Radar Cross Section
13.562 m², Large (>1 m²)

Expand to show TLE details & history

TLE from 10 hours ago
0 STARLINK-1821
1 46718U 20073BA  25183.83335648  .00029380  00000-0  16254-2 0  9999
2 46718  53.0533 298.1212 0001749  44.5551 256.1889 15.13647683  5836
Epoch: 2025-07-02T20:00Z
TLE epoch observation values (Epoch: 2025-07-02T20:00:01.999Z)
Latitude
-43.58838°
Longitude
31.6066°
Altitude
540.018 km
Speed
7.592 km/s
True Right ascension
16h 50m 53s
True Declination
-43° 24' 40"
Sunlit
Object was in full shadow at epoch
Visualization orbit readout
Latitude
43.64736°
Longitude
120.62296°
Altitude
528.216 km
Speed
7.605 km/s
Apparent Right ascension
02h 14m 00s
Apparent Declination
6° 23' 01"
Sunlit
Object is in daylight
Visualization observer readout
Local Sidereal Time
17:47:29
Azimuth
59.714° ENE
Elevation
-22.548°
Doppler factor
1
Orbital elements
Apogee altitude
526.566 km
Perigee altitude
524.151 km
Semi-major axis
6,903.496 km
Eccentricity
0.00017
Inclination
53.0533°
RAAN
298.1212°
Arg. of periapsis
44.5551°
True anomaly
Unknown
Mean anomaly
256.1889°
Eccentric anomaly
Unknown
Mean motion
3.7839 °/min
Orbital period
95.14 mins
BSTAR
0.0016254
Loading maneuver chart data...
Loading SW <> Apogee altitude chart data...

STARLINK-1821 Visibility forecast

Observer location: undefined°, undefined°

Span
Click to sort rows by Start time (UTC) header in descending order
Start Az.
Max El. time (UTC)
Max El. Az.
Max El.
End time (UTC)
End Az.
4 mins2025-07-03 09:05:52.552Z154.193° SSE2025-07-03 09:07:52.552Z119.732° SE15.053°2025-07-03 09:09:52.552Z89.218° E
6 mins2025-07-03 10:43:52.552Z244.458° WSW2025-07-03 10:45:52.552Z297.164° NW42.19°2025-07-03 10:49:52.552Z45.532° ENE
4 mins2025-07-03 15:44:52.552Z353.494° N2025-07-03 15:45:52.552Z14.436° NNE21.039°2025-07-03 15:48:52.552Z72.113° E
6 mins2025-07-03 17:22:52.552Z303.499° NW2025-07-03 17:25:52.552Z192.471° SSW42.847°2025-07-03 17:28:52.552Z140.081° SSE
|